Regional Weather Roundup
Issued by NWS

Home | Current Version | Previous Version | Text Only | Print | Product List | Glossary On
Versions: 1 2 3 4 5 6 7 8 9 10 11 12 13 14 15 16 17 18 19 20 21 22 23 24 25 26 27 28 29 30 31 32 33 34 35 36 37 38 39 40 41 42 43 44 45 46 47 48 49 50
000
ASUS43 KOAX 270502
RWRNE

WEATHER ROUNDUP FOR NEBRASKA
NATIONAL WEATHER SERVICE OMAHA NE
1200 AM CDT TUE SEP 27 2016

NOTES: SATELLITE DATA IS BEING USED TO AUGMENT CLOUD COVER ABOVE
       12000 FEET.
       "FAIR" INDICATES FEW OR NO CLOUDS BELOW 12,000 FEET WITH NO
       SIGNIFICANT WEATHER AND/OR OBSTRUCTIONS TO VISIBILITY.

  * THESE STATIONS DO NOT REPORT WEATHER SUCH AS RAIN...SNOW OR FOG.

NEZ001>004-019>022-054>056-270600-
NEBRASKA PANHANDLE

CITY           SKY/WX    TMP DP  RH WIND       PRES   REMARKS
SCOTTSBLUFF    CLEAR     52  44  74 CALM      30.25F
ALLIANCE       CLEAR     46  41  82 NW6       30.23F
CHADRON        CLEAR     48  42  80 SW6       30.21F
KIMBALL        CLOUDY    47  41  78 NW6       30.31F
SIDNEY         CLEAR     47  40  76 W7        30.28F
$$

NEZ057>060-069>072-079>082-270600-
SOUTHWEST NEBRASKA

CITY           SKY/WX    TMP DP  RH WIND       PRES   REMARKS
NORTH PLATTE   CLEAR     45  41  86 NW3       30.19S
IMPERIAL       CLEAR     54  42  64 NW5       30.22S
LEXINGTON      CLEAR     49  43  80 CALM      30.17F
MCCOOK         CLEAR     50  45  83 W5        30.17F HAZE
OGALLALA       CLEAR     50  43  77 W6        30.21F
$$

NEZ005>010-023>029-035>040-094-270600-
NORTH CENTRAL NEBRASKA

CITY           SKY/WX    TMP DP  RH WIND       PRES   REMARKS
VALENTINE      CLEAR     52  38  58 NW8       30.15F
AINSWORTH      CLEAR     50  41  72 W6        30.15S
BROKEN BOW     CLEAR     42  39  89 CALM      30.15S
O`NEILL        CLEAR     52  42  70 W6        30.12S
ORD            CLEAR     47  41  80 CALM      30.11F
THEDFORD       CLEAR     50  42  71 W3        30.19S
$$

NEZ041-046>049-061>064-073>077-083>087-270600-
SOUTH CENTRAL NEBRASKA

CITY           SKY/WX    TMP DP  RH WIND       PRES   REMARKS
GRAND ISLAND   CLEAR     51  44  77 W3        30.13F
AURORA         CLEAR     52  47  83 CALM      30.12F
HASTINGS       CLEAR     55  44  66 SW3       30.14F
HEBRON         CLEAR     50  46  85 CALM      30.13S
HOLDREGE       CLEAR     49  43  79 CALM      30.16S
KEARNEY *      CLEAR     55  43  62 CALM      30.14F
YORK           CLEAR     50  46  87 W6        30.12S
$$

NEZ011>018-030>034-042>045-270600-
NORTHEAST NEBRASKA

CITY           SKY/WX    TMP DP  RH WIND       PRES   REMARKS
NORFOLK        CLEAR     50  42  74 W5        30.09S
ALBION         CLEAR     47  44  89 CALM      30.11S
BLAIR          CLEAR     57  44  59 W7        30.07S
FREMONT        CLEAR     51  46  81 CALM      30.08S
TEKAMAH        CLEAR     49  44  83 SW3       30.05F
WAYNE          CLEAR     46  44  90 S5        30.08F
$$

NEZ050>053-065>068-078-088>093-270600-
SOUTHEAST NEBRASKA

CITY           SKY/WX    TMP DP  RH WIND       PRES   REMARKS
LINCOLN        CLEAR     56  47  71 CALM      30.11S
OMAHA EPPLEY   CLEAR     55  48  77 SE6       30.07S
BEATRICE       CLEAR     55  46  72 CALM      30.11F
FALLS CITY     CLEAR     55  48  77 W5        30.09R
NEBRASKA CITY  CLEAR     56  38  49 W7        30.09S
PLATTSMOUTH    CLEAR     58  40  50 W3        30.08S
$$

NEZ044-045-051>053-067-270600-
OMAHA AREA

CITY           SKY/WX    TMP DP  RH WIND       PRES   REMARKS
OMAHA EPPLEY   CLEAR     55  48  77 SE6       30.07S
BLAIR          CLEAR     57  44  59 W7        30.07S
FREMONT        CLEAR     51  46  81 CALM      30.08S
MILLARD        CLEAR     54  49  85 CALM      30.07S
OFFUTT AFB     CLEAR     53  50  87 MISG      30.06F
PLATTSMOUTH    CLEAR     58  40  50 W3        30.08S
WAHOO          FAIR      54  47  75 W3        30.08F
$$




USA.gov is the U.S. government's official web portal to all federal, state and local government web resources and services.